Lapse_Rate
6.1 5.7 5.5 5.5 5.2 5.5 5.8 6.0 5.8 5.6 5.6 5.8 6.0 5.8 5.7 5.4 5.4 5.4 5.4 5.3 5.2 5.2 5.0 4.9 5.0 5.0 5.1 5.1 5.1 5.3 5.2 5.1 5.1 5.2 5.3 5.4 5.7 5.6 5.8 6.0 6.0 5.9 6.0
6.5 6.0 5.7 5.5 5.5 5.6 5.5 6.0 5.7 5.7 6.0 5.8 5.8 5.8 5.6 5.8 5.6 5.4 5.3 5.4 5.2 5.2 5.1 5.0 4.9 4.9 5.1 5.2 5.2 5.4 5.3 5.1 5.4 5.4 5.4 5.5 5.8 5.8 5.8 5.8 5.8 5.8 5.9
6.3 6.3 6.0 5.7 5.8 5.6 5.7 6.3 6.3 5.9 6.0 5.7 5.8 6.2 6.3 5.7 5.6 5.3 5.2 5.3 5.2 5.2 5.2 5.1 5.0 5.0 5.2 5.0 5.4 5.5 5.3 5.2 5.5 5.5 5.6 5.7 5.7 5.7 5.6 5.6 5.6 5.6 5.7
6.3 6.4 6.2 5.8 6.1 6.0 6.1 6.3 6.1 6.2 6.4 6.2 6.1 6.3 6.4 6.0 5.5 5.5 5.3 5.3 5.3 5.4 5.5 5.2 5.2 5.0 5.1 5.2 5.5 5.4 5.2 5.3 5.4 5.6 5.7 5.9 5.7 5.5 5.5 5.5 5.6 5.5 5.7
6.2 6.3 6.3 6.0 6.1 6.7 6.8 6.7 6.6 6.5 6.7 6.5 6.7 6.7 6.3 6.0 5.4 5.4 5.5 5.3 5.2 5.3 5.4 5.3 5.4 5.2 5.0 5.4 5.6 5.4 5.5 5.5 5.6 5.7 5.9 5.9 5.8 5.4 5.4 5.5 5.5 5.5 5.6
6.3 6.1 6.3 6.1 6.2 6.4 6.6 6.7 6.7 6.7 7.1 7.1 6.8 6.6 6.6 6.3 5.6 5.3 5.5 5.4 5.2 5.3 5.4 5.3 5.4 5.4 5.2 5.4 5.5 5.5 5.5 5.5 5.6 5.7 5.9 5.8 5.7 5.5 5.3 5.4 5.4 5.5 5.5
6.8 6.4 6.1 6.4 6.2 6.4 6.6 6.6 6.7 6.9 6.8 7.0 7.0 6.8 6.7 6.5 6.0 5.8 5.6 5.5 5.3 5.4 5.4 5.5 5.5 5.6 5.4 5.3 5.6 5.6 5.7 5.5 5.7 5.8 5.9 5.8 5.7 5.5 5.4 5.3 5.4 5.5 5.5
6.7 6.8 6.5 6.4 6.5 6.3 6.5 6.7 6.7 6.9 6.7 7.0 6.9 6.8 6.6 6.7 6.3 6.1 6.0 5.9 5.5 5.5 5.6 5.6 5.6 5.8 5.7 5.5 5.4 5.6 5.8 5.5 5.6 5.7 5.7 5.8 5.8 5.8 5.4 5.3 5.3 5.5 5.6
6.7 7.0 6.8 6.5 6.7 6.7 6.6 6.7 6.8 6.9 7.1 7.0 7.0 6.6 6.5 6.3 6.1 6.2 6.2 6.0 5.8 5.8 5.9 5.9 5.7 5.9 5.8 5.7 5.6 5.6 5.6 5.4 5.5 5.5 5.6 5.6 5.8 5.9 5.8 5.4 5.4 5.3 5.4
6.8 6.9 6.9 6.6 6.6 7.0 7.0 6.8 6.8 6.9 7.0 7.0 6.7 6.6 6.4 6.3 6.2 6.3 6.3 6.2 6.0 6.0 6.0 6.1 6.0 6.0 5.8 5.7 5.5 5.5 5.6 5.6 5.5 5.4 5.7 5.7 5.8 6.0 5.9 5.6 5.4 5.3 5.3
6.6 6.8 6.7 6.6 6.4 6.6 6.8 6.8 6.9 6.8 6.8 6.9 6.8 6.8 6.6 6.4 6.4 6.4 6.4 6.3 6.2 6.0 5.9 6.0 6.0 6.1 6.0 5.7 5.4 5.6 5.7 5.7 5.6 5.5 5.6 5.7 5.8 6.1 6.0 5.7 5.5 5.4 5.3
7.0 6.8 6.6 6.6 6.5 6.6 6.8 6.8 6.8 6.9 6.7 6.7 6.8 6.8 6.5 6.4 6.4 6.5 6.3 6.4 6.3 6.1 6.0 6.0 5.9 6.0 5.9 6.1 5.8 5.5 5.9 5.8 5.7 5.5 5.6 5.7 5.9 5.9 5.9 5.7 5.6 5.5 5.5
6.8 6.9 6.8 6.6 6.6 6.7 6.7 6.7 6.6 6.7 6.7 6.8 6.8 7.0 6.8 6.4 6.5 6.4 6.4 6.5 6.3 6.1 6.1 6.1 5.8 6.0 6.1 5.9 5.9 5.7 5.6 5.6 5.7 5.6 5.6 5.6 5.7 5.8 5.8 5.8 5.7 5.8 5.8
7.3 6.9 7.0 6.9 6.6 6.7 6.5 6.5 6.5 6.4 6.6 6.6 6.6 6.7 6.8 6.8 6.5 6.4 6.4 6.4 6.4 6.3 6.3 6.3 6.0 5.9 6.0 6.0 5.9 5.9 5.7 5.8 5.8 5.5 5.5 5.4 5.4 5.7 5.7 5.8 5.8 5.8 5.9
7.7 7.4 7.2 7.2 7.2 6.9 6.8 6.6 6.6 6.5 6.4 6.5 6.7 6.6 6.5 6.5 6.4 6.3 6.2 6.2 6.4 6.4 6.3 6.4 6.2 6.0 5.8 5.8 5.8 5.8 5.8 5.7 5.7 5.7 5.4 5.3 5.4 5.5 5.7 5.7 5.9 5.9 6.0
8.3 7.9 7.5 7.2 7.3 7.3 7.0 6.8 6.7 6.8 6.8 6.7 6.5 6.6 6.6 6.5 6.4 6.4 6.3 6.3 6.2 6.0 6.1 6.2 6.2 5.9 5.7 5.7 5.6 5.5 5.5 5.6 5.7 5.5 5.3 5.1 5.3 5.4 5.7 5.7 5.8 5.8 5.9
8.8 8.3 8.1 7.5 7.3 7.3 7.2 6.9 6.8 6.7 6.6 6.7 6.6 6.6 6.5 6.4 6.5 6.4 6.3 6.2 6.0 6.0 5.9 5.9 6.1 6.0 5.9 5.9 5.9 5.7 5.6 5.5 5.6 5.3 5.1 4.9 5.0 5.3 5.4 5.5 5.5 5.7 5.8
8.9 8.9 8.3 8.2 7.9 7.4 7.4 7.2 6.9 6.8 6.7 6.5 6.6 6.5 6.5 6.4 6.3 6.2 6.3 6.2 6.0 5.9 5.8 5.8 5.7 5.6 5.7 5.9 5.8 5.7 5.5 5.6 5.6 5.3 5.0 5.1 5.2 5.3 5.3 5.3 5.4 5.5 5.7
8.6 8.7 8.5 8.5 8.3 8.1 7.5 7.6 7.1 7.0 6.9 6.8 6.7 6.6 6.4 6.3 6.3 6.3 6.1 6.0 6.1 6.0 5.9 5.8 5.8 5.7 5.6 5.5 5.5 5.5 5.6 5.7 5.6 5.5 5.2 5.0 4.8 5.5 5.4 5.5 5.7 5.8 5.7
8.6 8.3 8.6 8.3 8.3 8.2 8.2 7.8 7.6 7.4 7.2 7.0 6.9 6.6 6.4 6.5 6.1 6.3 6.2 6.0 6.0 6.0 5.9 5.8 5.5 5.6 5.7 5.6 5.2 5.2 5.5 5.6 5.7 5.8 5.6 5.5 5.3 5.2 5.5 5.6 5.7 5.8 5.7
8.4 8.7 8.8 8.7 8.4 8.2 8.4 8.5 8.2 8.1 7.7 7.4 7.1 6.8 6.7 6.6 6.4 6.2 6.3 6.3 6.1 6.1 5.7 5.6 5.6 5.6 5.5 5.4 5.3 5.4 5.6 5.9 6.1 6.2 6.0 5.9 5.8 5.6 5.6 5.7 5.7 5.8 5.7
8.7 8.5 8.8 8.6 8.6 8.5 8.1 8.1 8.2 8.0 7.7 7.6 7.3 7.1 6.8 6.9 6.8 6.5 6.7 6.5 6.3 6.2 6.1 5.8 5.7 5.6 5.5 5.4 5.4 5.2 5.3 5.6 6.1 6.2 6.2 6.1 6.1 5.9 5.9 5.7 5.6 5.7 5.7
8.4 8.6 8.6 8.6 8.5 8.5 8.6 8.2 8.1 8.1 7.9 7.5 7.5 7.5 7.4 7.1 7.0 7.1 6.9 6.7 6.5 6.3 6.2 6.1 5.8 5.8 5.5 5.3 5.4 5.2 5.2 5.6 5.6 5.6 5.7 5.8 6.0 6.0 6.0 5.9 5.9 5.9 5.8
9.0 8.8 8.8 8.6 8.2 8.2 8.2 8.2 8.2 8.2 8.2 8.0 7.5 7.4 7.4 7.3 7.1 7.1 7.1 6.9 6.7 6.6 6.4 6.0 5.9 5.8 5.7 5.6 5.5 5.6 5.5 5.6 5.5 5.5 5.5 5.7 5.9 5.9 5.7 5.6 5.6 5.7 5.7
9.1 9.1 8.8 9.0 9.0 8.6 7.9 8.2 7.9 8.1 8.3 8.1 7.8 7.4 7.2 7.3 7.3 7.2 7.0 6.9 6.8 6.7 6.6 6.2 6.0 6.0 5.8 5.7 5.7 5.4 5.3 5.5 5.6 5.8 5.8 5.5 5.4 5.4 5.5 5.6 5.7 5.6 5.5
8.9 9.1 9.0 8.7 9.1 9.0 8.8 8.2 8.2 7.9 8.1 8.3 8.1 8.0 7.7 7.3 7.3 7.3 7.1 7.0 6.9 6.7 6.5 6.4 5.8 5.6 5.4 5.5 5.4 5.3 5.4 5.5 5.6 5.5 5.5 5.6 5.4 5.5 5.4 5.4 5.5 5.6 5.5
Wind_Speed
6 14 18 16 17 19 19 20 21 21 23 23 23 24 23 22 22 21 21 19 18 17 16 15 14 15 15 14 15 17 17 18 17 16 17 16 16 15 16 15 14 15 16
15 19 19 16 18 20 19 18 21 20 21 21 22 23 22 22 21 21 19 18 17 16 15 14 14 14 14 13 14 16 16 16 16 17 17 16 15 15 15 13 13 14 14
15 20 19 18 16 20 19 18 19 21 21 20 21 20 21 21 21 21 18 18 16 16 15 15 13 12 12 11 12 14 14 15 15 16 14 12 13 13 13 12 12 14 13
14 19 18 18 19 19 19 18 19 19 21 20 19 19 19 20 19 20 18 16 15 15 15 13 12 11 11 12 12 14 14 15 14 13 11 10 12 14 13 11 11 14 13
12 18 17 19 19 20 21 19 18 20 19 20 19 18 18 19 19 19 17 16 15 13 13 11 12 11 11 13 14 14 14 13 12 11 13 9 10 12 11 12 10 11 10
9 13 19 20 19 21 21 21 20 20 20 18 18 17 17 17 18 17 17 16 14 14 12 11 13 12 12 12 14 15 13 14 11 9 10 9 7 13 12 11 10 11 10
10 13 17 19 19 19 20 20 19 17 18 19 18 16 16 16 16 18 17 15 14 15 13 12 14 14 13 12 13 13 13 12 8 7 7 7 7 12 12 11 10 9 8
14 13 16 19 20 20 20 19 19 19 18 18 18 17 15 15 16 17 18 17 16 14 14 14 14 15 14 12 12 11 9 7 7 7 7 7 7 9 11 11 11 10 8
12 12 13 15 19 21 20 19 19 19 18 17 17 19 18 17 15 16 14 16 16 15 13 13 12 13 14 12 10 8 6 2 3 6 9 8 8 10 10 10 11 11 9
9 10 9 11 14 15 17 20 19 19 19 19 18 17 17 17 17 15 14 11 14 13 12 12 12 13 12 11 10 7 4 2 6 8 9 10 11 10 9 11 11 11 10
7 7 7 8 9 12 13 16 18 19 19 18 18 17 16 12 14 14 13 13 13 13 12 12 13 12 11 9 8 7 4 3 5 6 6 12 12 12 11 11 11 11 11
13 10 9 9 7 11 13 12 13 14 13 13 13 14 11 14 13 11 13 13 13 12 14 11 12 11 11 7 6 7 3 3 4 6 7 11 13 14 12 12 12 12 11
14 10 11 11 9 9 8 9 10 9 10 10 11 10 11 10 9 9 9 10 11 13 11 11 9 7 7 6 5 3 3 4 4 5 8 13 16 17 15 13 13 13 13
13 14 13 12 11 9 7 6 9 7 8 7 11 13 10 6 5 5 6 6 9 7 7 7 7 7 7 6 5 4 5 5 5 6 10 12 19 20 17 16 16 15 14
15 14 14 13 12 13 8 6 7 7 8 10 10 12 11 7 3 5 6 7 7 9 8 5 6 5 6 6 6 7 6 7 7 7 10 13 19 21 19 17 16 16 16
16 16 14 14 13 14 11 10 8 10 10 11 11 11 14 10 8 7 5 5 5 8 9 8 5 5 5 6 5 8 8 8 8 8 9 8 15 18 17 18 18 18 18
19 17 16 15 13 12 11 9 8 11 11 9 11 13 14 13 11 8 5 4 7 8 7 6 4 3 3 4 5 6 7 9 8 9 7 9 11 18 19 19 19 20 20
14 17 15 14 15 14 12 8 7 9 10 10 11 12 15 14 13 10 5 5 8 7 6 4 3 3 3 4 4 5 5 7 9 9 7 8 11 13 16 20 21 21 21
11 12 14 14 16 16 13 9 7 8 7 11 12 13 15 15 15 12 7 7 11 8 5 4 4 3 3 4 5 5 5 5 6 8 9 9 10 13 14 17 22 22 22
12 12 12 12 13 14 10 8 7 5 7 11 11 13 16 16 16 14 10 9 10 5 5 5 6 5 4 4 5 4 5 5 5 4 6 9 10 12 12 13 15 18 23
14 15 16 15 15 11 10 10 9 10 8 8 7 16 16 17 18 14 7 7 9 8 9 8 5 7 6 4 2 3 4 7 7 6 7 8 9 13 13 14 14 14 15
16 17 17 17 16 13 11 10 7 8 8 9 7 9 15 15 16 13 9 8 8 6 7 8 8 3 4 5 3 1 2 3 3 7 6 7 9 11 12 15 15 16 17
18 21 20 18 16 17 15 9 3 3 2 4 5 6 8 15 15 15 13 9 9 8 8 9 9 9 5 5 6 3 2 5 1 2 6 7 8 7 8 13 15 16 17
17 14 18 19 18 17 17 13 16 11 9 7 8 8 7 11 12 15 14 11 10 8 8 9 7 7 5 5 2 6 2 3 3 2 1 3 4 7 8 7 10 14 17
4 5 13 14 18 18 20 18 14 14 10 6 6 7 9 9 11 13 14 10 10 8 9 9 7 9 7 4 3 2 7 2 0 1 3 3 2 3 4 6 8 11 14
8 5 5 15 17 18 19 20 19 18 13 9 11 9 8 7 8 11 11 11 11 10 10 9 9 7 6 6 4 5 3 3 6 5 6 7 6 4 4 4 5 7 11
Wind_Direction
164 157 156 147 134 129 123 121 114 116 119 126 131 134 133 133 131 131 127 126 120 119 127 129 128 131 131 125 118 112 116 118 119 121 116 115 114 111 107 103 106 106 107
138 153 159 155 143 135 130 127 123 122 123 127 131 137 136 135 133 132 131 130 128 125 130 133 137 136 136 132 121 118 122 122 124 123 120 115 109 108 108 109 111 108 110
142 152 163 156 150 139 139 134 131 130 131 128 129 137 139 136 140 138 140 140 138 136 136 139 142 140 139 135 124 124 128 129 130 126 127 113 116 120 119 124 124 117 115
140 154 161 165 154 147 140 139 141 139 133 135 137 140 141 142 147 148 148 149 147 142 141 141 140 144 142 138 134 132 134 136 124 122 128 124 121 128 131 133 120 117 120
145 151 159 159 156 154 147 147 150 145 143 141 138 141 146 146 156 156 155 156 156 151 143 153 144 146 147 138 140 140 140 133 130 116 126 121 136 135 135 127 127 126 118
140 148 160 160 161 158 153 153 157 149 147 142 144 150 151 156 160 161 163 164 165 157 156 157 150 152 147 145 145 143 142 140 134 122 129 134 139 137 137 137 145 125 123
143 153 159 161 160 162 160 161 158 151 149 148 150 156 156 161 158 162 164 162 169 169 160 150 152 148 146 154 149 151 144 144 147 142 146 144 160 150 151 152 144 137 144
145 154 159 164 163 165 167 168 165 161 160 159 160 162 161 166 161 160 163 163 165 165 163 152 155 146 149 155 155 158 160 175 186 175 172 166 183 171 167 164 162 157 162
145 147 158 163 172 172 177 176 175 170 167 170 171 168 169 172 167 164 166 166 167 170 169 160 157 154 157 157 163 161 160 199 205 186 173 172 190 193 187 175 172 170 178
150 152 154 159 170 174 178 182 181 176 175 175 177 169 171 171 168 169 163 167 169 173 168 164 167 162 159 165 166 168 169 93 166 166 161 177 195 211 192 189 189 184 184
159 163 153 158 159 166 173 184 183 185 187 180 184 182 177 176 173 179 167 176 171 170 174 175 173 161 160 170 177 174 177 111 162 176 177 188 197 205 212 211 208 200 198
179 180 167 165 162 162 174 179 176 186 179 189 186 186 174 179 175 169 176 179 185 183 173 185 170 168 168 171 188 198 174 158 151 199 213 205 206 210 221 213 214 213 204
188 182 179 171 162 172 179 167 167 176 175 178 181 172 168 167 178 173 176 192 187 192 182 179 179 171 166 174 175 221 206 212 207 218 233 221 213 213 219 217 219 224 221
192 194 184 180 173 176 175 173 170 165 173 173 177 171 158 161 166 168 170 192 185 193 184 169 177 179 175 189 194 225 238 242 234 235 242 240 218 211 217 219 220 223 228
192 195 189 180 184 184 173 174 171 184 183 178 176 177 166 169 167 166 187 196 197 189 190 179 180 187 188 204 207 237 240 247 247 254 252 248 219 210 214 220 225 228 229
192 192 186 186 184 189 183 179 190 187 184 177 181 183 181 177 179 177 183 196 208 203 201 196 188 191 210 215 226 239 248 260 268 275 259 242 218 217 217 221 223 230 233
188 182 185 183 181 186 191 186 187 191 185 185 188 184 186 184 183 181 186 193 205 208 204 196 189 189 216 230 250 256 258 260 268 282 259 227 213 216 220 227 229 229 232
187 186 183 183 181 182 186 187 193 194 191 195 189 188 193 192 188 179 180 198 192 191 195 195 186 204 226 227 246 250 258 269 270 264 244 230 215 217 225 228 230 233 233
194 193 187 188 186 184 186 177 187 185 194 195 191 194 197 192 187 189 193 197 183 185 191 194 204 195 201 219 235 246 252 261 273 271 243 233 230 224 218 229 235 238 239
189 189 191 189 191 187 186 183 184 171 197 194 195 199 193 196 195 193 195 193 183 188 194 194 207 203 209 209 227 239 246 253 265 257 251 249 235 235 236 235 238 240 241
185 191 187 188 189 181 185 187 193 196 192 203 202 199 194 194 192 193 198 197 191 200 205 204 194 215 225 195 152 242 250 241 234 236 235 238 240 239 233 234 238 244 250
191 195 194 191 186 187 189 196 196 197 207 200 199 206 193 191 194 193 196 198 195 202 205 199 193 193 219 175 163 120 295 303 248 227 222 225 230 231 231 231 232 235 240
199 201 196 194 192 185 194 182 151 130 97 165 199 212 210 194 195 199 199 199 196 195 205 201 200 194 204 193 197 155 162 229 295 229 229 229 227 222 228 232 225 230 235
224 204 198 191 191 192 186 191 192 194 193 197 203 198 202 206 199 197 200 202 199 199 205 202 197 210 180 193 204 231 184 155 192 293 269 255 240 236 234 240 238 235 235
357 221 201 194 194 191 188 192 195 204 197 170 172 182 197 199 208 209 203 200 205 200 208 199 195 203 208 179 181 163 223 211 134 153 274 295 316 250 243 241 242 244 238
344 348 207 194 199 194 192 194 197 200 198 182 173 182 193 199 201 206 203 203 205 206 209 208 204 208 223 236 212 202 186 180 214 214 239 249 251 268 256 246 237 234 241